Terminal Aerodrome Forecast
Issued by NWS Upton, NY

Home | Current Version | Previous Version | Text Only | Print | Product List | Glossary On
Versions: 1 2 3 4 5 6 7 8 9 10 11 12 13 14 15 16 17 18 19 20 21 22 23 24 25 26 27 28 29 30 31
356
FTUS41 KOKX 292344
TAFLGA
TAF
KLGA 292344Z 3000/3024 09006KT P6SM OVC015
     FM300300 11005KT 5SM -DZ BR BKN009 OVC012
     FM300700 12006KT 5SM -DZ BR OVC006
     FM301400 13009KT P6SM OVC015
     FM301700 13011KT P6SM BKN020=

USA.gov is the U.S. government's official web portal to all federal, state and local government web resources and services.